Vertical_Velocity
-11 -5 -3 -5 -2 1 -1 4 -2 3 -4 -5 -2 -2 -2 -3 -1 -1 -4 -2 4 -3 2 9 3 9 -5
-1 1 -3 -2 -5 -5 1 -1 -2 5 2 4 -2 -8 -6 -1 2 -2 -0 -0 -7 -4 -7 -26 -4 14 9
-12 -1 -7 -4 -2 0 -1 1 2 -0 3 -3 -6 4 2 -3 -1 -5 -4 -4 -5 -4 1 8 6 -1 -6
-4 -5 -4 6 -3 -10 4 1 -0 7 1 -7 0 -4 -3 -0 -1 3 0 -1 -1 -5 -3 14 3 -1 4
-2 -5 -2 -1 -3 1 -6 -5 18 -4 -6 6 -3 -2 2 -5 -3 -1 1 1 3 -7 -2 4 3 7 3
-2 -8 2 -3 -1 -2 -5 1 6 1 -6 10 -8 3 -2 0 1 -1 -2 2 -0 -3 -2 4 1 1 -1
-4 -1 -4 -2 -3 4 5 -2 0 2 -7 5 -4 1 -2 -1 -2 -0 1 -3 -4 -4 3 3 -4 -3 -3
-1 -2 -4 -2 -2 -3 0 2 1 -1 -4 -3 -5 0 5 8 5 2 2 2 -1 -4 -2 1 0 -1 1
-1 -3 -2 -0 -3 -0 2 1 3 -1 -4 -2 -1 2 3 7 1 2 3 3 -0 -2 -1 -0 6 4 -2
3 -1 -2 -1 -2 -3 -2 1 0 1 -6 -5 -3 -4 5 2 3 7 7 5 -3 -2 -2 -2 -6 -6 -3
0 -1 -1 -2 -1 -0 -1 -2 1 -1 -5 -1 -2 1 0 -1 -0 4 3 3 2 -1 -2 -2 -5 -6 -4
-1 -2 2 2 0 -0 -1 1 -1 -1 -3 -3 2 2 1 -0 -3 0 5 3 3 2 3 1 -1 -3 -4
1 1 -1 1 0 1 -2 -0 -2 1 -1 1 -0 -1 1 2 -4 -0 5 3 3 6 1 0 1 1 2
2 1 1 1 1 2 2 2 1 0 -0 -0 3 1 2 1 -3 -1 2 0 2 0 4 2 2 4 2
-1 -1 -1 0 1 1 2 1 1 2 1 -1 -2 2 -1 3 -4 -2 1 0 1 3 3 4 3 5 4
-0 0 1 1 -0 0 -1 1 1 2 -0 -1 -1 1 1 0 -2 1 1 1 1 0 1 -0 2 -3 3
0 0 2 1 0 0 1 1 1 0 1 -2 -2 1 1 -1 -1 -1 -1 1 2 13 4 0 3 6 8
Height
5398 5389 5377 5361 5355 5342 5326 5317 5314 5311 5305 5303 5300 5298 5299 5301 5303 5307 5311 5318 5326 5334 5344 5360 5368 5376 5391
5374 5361 5348 5340 5328 5319 5310 5301 5293 5289 5281 5279 5275 5273 5272 5275 5276 5280 5285 5290 5299 5308 5314 5331 5348 5361 5365
5346 5339 5326 5315 5307 5300 5291 5284 5276 5267 5260 5255 5249 5243 5244 5248 5251 5253 5255 5261 5270 5284 5296 5310 5325 5336 5345
5323 5316 5305 5298 5286 5275 5273 5266 5260 5247 5240 5233 5225 5221 5222 5222 5222 5225 5227 5233 5244 5258 5272 5288 5304 5317 5328
5302 5293 5286 5276 5264 5258 5250 5245 5242 5227 5220 5218 5205 5206 5202 5200 5199 5200 5201 5205 5217 5233 5251 5269 5286 5300 5312
5284 5275 5268 5257 5248 5239 5232 5226 5224 5212 5203 5203 5193 5193 5189 5185 5183 5180 5180 5186 5198 5215 5234 5252 5268 5283 5297
5268 5259 5250 5241 5233 5226 5220 5212 5206 5200 5193 5194 5186 5185 5181 5178 5174 5171 5171 5177 5187 5204 5223 5239 5254 5268 5284
5256 5245 5236 5229 5221 5214 5208 5204 5197 5191 5186 5185 5183 5181 5179 5177 5173 5168 5167 5171 5181 5198 5215 5230 5245 5259 5274
5245 5236 5228 5221 5213 5208 5202 5195 5192 5187 5183 5182 5180 5179 5177 5175 5170 5166 5165 5170 5181 5196 5210 5222 5235 5248 5262
5239 5231 5224 5218 5210 5203 5197 5192 5187 5183 5179 5178 5178 5177 5176 5172 5170 5169 5169 5172 5181 5193 5204 5215 5225 5236 5251
5234 5227 5221 5214 5207 5202 5196 5191 5186 5181 5177 5177 5176 5176 5175 5173 5170 5171 5172 5174 5179 5187 5196 5205 5215 5226 5239
5229 5222 5215 5210 5204 5199 5194 5189 5184 5181 5177 5174 5174 5174 5174 5173 5172 5173 5174 5175 5179 5185 5191 5197 5204 5213 5224
5224 5217 5211 5207 5202 5198 5192 5187 5182 5179 5176 5174 5172 5171 5170 5170 5172 5174 5178 5179 5182 5188 5189 5195 5201 5208 5218
5220 5215 5210 5206 5202 5197 5192 5187 5182 5177 5174 5172 5171 5170 5169 5171 5173 5176 5179 5182 5186 5189 5193 5199 5205 5212 5220
5219 5214 5209 5205 5201 5198 5194 5189 5183 5178 5173 5170 5171 5172 5171 5172 5175 5179 5182 5186 5190 5195 5200 5207 5213 5220 5229
5218 5214 5210 5207 5203 5200 5196 5191 5186 5181 5177 5174 5176 5176 5176 5177 5179 5183 5187 5192 5196 5202 5208 5213 5219 5226 5234
5220 5217 5213 5210 5207 5204 5200 5196 5191 5187 5184 5182 5181 5182 5182 5183 5185 5188 5192 5197 5202 5209 5214 5219 5226 5230 5237